PE4KH-1 Weather Reports


Display with metric or nautical units.
time (UTC)temp
F
wind
direction
speed
MPH
gust
MPH
rain 1hr
in
rain 24hr
in
rain mn
in
humidity
%
barometer
mb
20180119231304 41 0.0 0.0 0.00 0.00 0.00 91 998.4
20180119230303 41 0.0 0.0 0.00 0.00 0.00 91 998.4
20180119225302 41 0.0 0.0 0.00 0.00 0.00 90 998.4
20180119224306 41 0.0 0.0 0.00 0.00 0.00 90 998.6
20180119223303 41 0.0 0.0 0.00 0.00 0.00 89 998.6
20180119222304 41 0.0 0.0 0.00 0.00 0.00 89 998.6
20180119221306 41 0.0 0.0 0.00 0.00 0.00 89 998.8
20180119220307 41 0.0 0.0 0.00 0.00 0.00 89 999.0
20180119215306 41 0.0 0.0 0.00 0.00 0.00 89 998.6
20180119214302 41 0.0 0.0 0.00 0.00 0.00 89 998.6
20180119213306 41 0.0 0.0 0.00 0.00 0.00 89 998.4
20180119212306 41 0.0 0.0 0.00 0.00 0.00 88 998.4
20180119211302 41 0.0 0.0 0.00 0.00 0.00 89 998.6
20180119210306 42 0.0 0.0 0.00 0.00 0.00 88 998.6
20180119201304 42 0.0 0.0 0.00 0.00 0.00 87 998.6
20180119200304 41 0.0 0.0 0.00 0.00 0.00 87 998.4
20180119195303 42 0.0 0.0 0.00 0.00 0.00 87 998.4
20180119194303 42 0.0 0.0 0.00 0.00 0.00 87 998.4
20180119192306 42 0.0 0.0 0.00 0.00 0.00 85 998.2
20180119191303 42 0.0 0.0 0.00 0.00 0.00 87 998.4
20180119190306 42 0.0 0.0 0.00 0.00 0.00 86 998.2
20180119185305 42 0.0 0.0 0.00 0.00 0.00 86 998.2
20180119184304 42 0.0 0.0 0.00 0.00 0.00 86 998.2
20180119183304 42 0.0 0.0 0.00 0.00 0.00 85 998.4
20180119182302 42 0.0 0.0 0.00 0.00 0.00 86 998.2
20180119181305 42 0.0 0.0 0.00 0.00 0.00 85 998.4
20180119180304 42 0.0 0.0 0.00 0.00 0.00 84 998.6
20180119175304 42 0.0 0.0 0.00 0.00 0.00 84 998.6
20180119174306 43 0.0 0.0 0.00 0.00 0.00 84 998.4
20180119173306 43 0.0 0.0 0.00 0.00 0.00 84 998.2
20180119172305 43 0.0 0.0 0.00 0.00 0.00 83 998.2
20180119171304 43 0.0 0.0 0.00 0.00 0.00 83 998.2
20180119170302 43 0.0 0.0 0.00 0.00 0.00 83 998.2
20180119165302 44 0.0 0.0 0.00 0.00 0.00 82 998.2
20180119164306 44 0.0 0.0 0.00 0.00 0.00 82 998.2
20180119163305 44 0.0 0.0 0.00 0.00 0.00 81 998.2
20180119161305 44 0.0 0.0 0.00 0.00 0.00 81 998.2
20180119160306 44 0.0 0.0 0.00 0.00 0.00 81 998.2
20180119155303 44 0.0 0.0 0.00 0.00 0.00 83 998.2
20180119153305 44 0.0 0.0 0.00 0.00 0.00 82 998.2
20180119152305 44 0.0 0.0 0.00 0.00 0.00 81 998.4
20180119151307 44 0.0 0.0 0.00 0.00 0.00 80 998.2
20180119150305 44 0.0 0.0 0.00 0.00 0.00 80 998.2
20180119145306 44 0.0 0.0 0.00 0.00 0.00 80 998.2
20180119144303 45 0.0 0.0 0.00 0.00 0.00 77 998.4
20180119143303 45 0.0 0.0 0.00 0.00 0.00 78 998.2
20180119142305 45 0.0 0.0 0.00 0.00 0.00 78 998.2
20180119141306 45 0.0 0.0 0.00 0.00 0.00 78 998.2
20180119140303 45 0.0 0.0 0.00 0.00 0.00 77 998.2
20180119135302 45 0.0 0.0 0.00 0.00 0.00 79 998.2
20180119134306 45 0.0 0.0 0.00 0.00 0.00 79 998.2
20180119133304 45 0.0 0.0 0.00 0.00 0.00 80 998.2
20180119132305 45 0.0 0.0 0.00 0.00 0.00 80 998.2
20180119131302 45 0.0 0.0 0.00 0.00 0.00 80 998.2
20180119130306 45 0.0 0.0 0.00 0.00 0.00 82 998.4
20180119125302 45 0.0 0.0 0.00 0.00 0.00 83 998.2
20180119124304 45 0.0 0.0 0.00 0.00 0.00 83 998.2
20180119123302 45 0.0 0.0 0.00 0.00 0.00 83 998.2
20180119122302 45 0.0 0.0 0.00 0.00 0.00 82 998.2
20180119121302 45 0.0 0.0 0.00 0.00 0.00 82 998.2
20180119120304 45 0.0 0.0 0.00 0.00 0.00 83 998.2
20180119115305 45 0.0 0.0 0.00 0.00 0.00 84 998.2
20180119114308 44 0.0 0.0 0.00 0.00 0.00 86 998.4
20180119113306 44 0.0 0.0 0.00 0.00 0.00 84 998.4
20180119112303 44 0.0 0.0 0.00 0.00 0.00 86 998.2
20180119111303 44 0.0 0.0 0.00 0.00 0.00 83 998.4
20180119110305 45 0.0 0.0 0.00 0.00 0.00 85 998.6
20180119105303 45 0.0 0.0 0.00 0.00 0.00 87 998.4
20180119104304 45 0.0 0.0 0.00 0.00 0.00 89 998.6
20180119103306 44 0.0 0.0 0.00 0.00 0.00 88 998.6
20180119102305 44 0.0 0.0 0.00 0.00 0.00 90 998.6
20180119101304 44 0.0 0.0 0.00 0.00 0.00 90 998.4
20180119100305 44 0.0 0.0 0.00 0.00 0.00 90 998.6
20180119095305 44 0.0 0.0 0.00 0.00 0.00 91 998.4
20180119094304 44 0.0 0.0 0.00 0.00 0.00 91 998.4
20180119093305 43 0.0 0.0 0.00 0.00 0.00 91 998.2
20180119092306 43 0.0 0.0 0.00 0.00 0.00 91 998.2
20180119091302 43 0.0 0.0 0.00 0.00 0.00 91 998.2
20180119085305 43 0.0 0.0 0.00 0.00 0.00 92 997.9
20180119084303 43 0.0 0.0 0.00 0.00 0.00 92 997.7
20180119083302 42 0.0 0.0 0.00 0.00 0.00 92 997.7
20180119082302 43 0.0 0.0 0.00 0.00 0.00 92 997.5
20180119081307 43 0.0 0.0 0.00 0.00 0.00 91 997.7
20180119080303 43 0.0 0.0 0.00 0.00 0.00 92 997.5
20180119075305 42 0.0 0.0 0.00 0.00 0.00 92 997.3
20180119074304 42 0.0 0.0 0.00 0.00 0.00 92 997.3
20180119073305 42 0.0 0.0 0.00 0.00 0.00 92 997.0
20180119072302 42 0.0 0.0 0.00 0.00 0.00 93 996.8
20180119071305 42 0.0 0.0 0.00 0.00 0.00 92 996.8
20180119070304 41 0.0 0.0 0.00 0.00 0.00 92 996.8
20180119065304 41 0.0 0.0 0.00 0.00 0.00 93 996.6
20180119064306 41 0.0 0.0 0.00 0.00 0.00 92 996.4
20180119062302 40 0.0 0.0 0.00 0.00 0.00 95 996.4
20180119061302 40 0.0 0.0 0.00 0.00 0.00 95 996.4
20180119060303 41 0.0 0.0 0.00 0.00 0.00 94 996.2
20180119055304 41 0.0 0.0 0.00 0.00 0.00 95 995.9
20180119054306 42 0.0 0.0 0.00 0.00 0.00 95 995.9
20180119052307 42 0.0 0.0 0.00 0.00 0.00 96 995.9
20180119051303 42 0.0 0.0 0.00 0.00 0.00 96 995.7
20180119050305 41 0.0 0.0 0.00 0.00 0.00 97 995.7
20180119045306 41 0.0 0.0 0.00 0.00 0.00 97 995.5
20180119044303 41 0.0 0.0 0.00 0.00 0.00 95 995.5
20180119043307 41 0.0 0.0 0.00 0.00 0.00 95 995.0
20180119042307 41 0.0 0.0 0.00 0.00 0.00 95 995.0
20180119041306 41 0.0 0.0 0.00 0.00 0.00 95 994.8
20180119034302 41 0.0 0.0 0.00 0.00 0.00 96 994.8
20180119033303 41 0.0 0.0 0.00 0.00 0.00 97 994.8
20180119032302 41 0.0 0.0 0.00 0.00 0.00 97 994.8
20180119031305 42 0.0 0.0 0.00 0.00 0.00 96 994.8
20180119030305 42 0.0 0.0 0.00 0.00 0.00 96 994.6
20180119025306 42 0.0 0.0 0.00 0.00 0.00 97 994.6
20180119024304 41 0.0 0.0 0.00 0.00 0.00 97 994.6
20180119023304 41 0.0 0.0 0.00 0.00 0.00 98 994.4
20180119022302 41 0.0 0.0 0.00 0.00 0.00 97 994.2
20180119021304 42 0.0 0.0 0.00 0.00 0.00 96 994.2
20180119020304 42 0.0 0.0 0.00 0.00 0.00 96 994.2
20180119015306 42 0.0 0.0 0.00 0.00 0.00 97 993.9
20180119014305 42 0.0 0.0 0.00 0.00 0.00 97 993.9
20180119013306 41 0.0 0.0 0.00 0.00 0.00 97 993.7
20180119012304 41 0.0 0.0 0.00 0.00 0.00 97 993.9
20180119011302 41 0.0 0.0 0.00 0.00 0.00 98 993.7
20180119010305 41 0.0 0.0 0.00 0.00 0.00 97 993.9
20180119005304 41 0.0 0.0 0.00 0.00 0.00 96 993.7
20180119004303 41 0.0 0.0 0.00 0.00 0.00 97 993.7
20180119003303 41 0.0 0.0 0.00 0.00 0.00 95 993.7
20180119002306 41 0.0 0.0 0.00 0.00 0.00 96 993.5
20180119001304 41 0.0 0.0 0.00 0.00 0.00 95 993.5
20180119000305 41 0.0 0.0 0.00 0.00 0.00 95 993.3
20180118235303 41 0.0 0.0 0.00 0.00 0.00 95 993.3
20180118234305 41 0.0 0.0 0.00 0.00 0.00 96 993.3
20180118232303 41 0.0 0.0 0.00 0.00 0.00 96 993.3